KINEIS-5B

Last updated on Thu Sep 10 2026 00:02:52 GMT+0000 (Coordinated Universal Time)

1 62085U 24219E 26252.58156880 .00000721 00000+0 10596-3 0 9990 2 62085 98.0158 55.9808 0002237 36.9757 323.1608 14.78479461 96470
UTC large
Height (km)
Speed (km/s)
/
Latitude / Longitude
Inclination (degrees)
Orbital Period (minutes)
Azimuth
Elevation
Range (km)
Doppler Factor

Next 0 passes for location: London (51.5072 / 0.1276)

No passes found over London.
KINEIS-5B